Location: Coopersdale
(40.3556°N, 78.9372°W)
Time: 02:35:01
(UTC+00:00)

Tiros 1 despin weight - Pass Details

Date: 21 January 2021
Orbit: 593 x 642 km, 48.2° (Epoch: 02 March)

Event Time Altitude Azimuth Distance (km) Brightness Sun altitude
Rises 20:53:36 0° 245° (WSW) 2,879 ? 13.1°
Reaches altitude 10° 20:55:56 10° 247° (WSW) 1,967 ? 12.8°
Maximum altitude 21:00:26 72° 332° (NNW) 640 ? 12.1°
Drops below altitude 10° 21:04:54 10° 58° (ENE) 1,945 ? 11.5°
Sets 21:07:11 0° 60° (ENE) 2,843 ? 11.1°
